Location: Unspecified
(0.0000°N, 0.0000°E)
Time: 19:15:39
(UTC+00:00)

XW-2B - Visible Passes

Search period start: 16 January 2018 00:00
Search period end: 26 January 2018 00:00
Orbit: 511 x 530 km, 97.5° (Epoch: 16 January)

Date Brightness Start Highest point End Pass type
(mag) Time Alt. Az. Time Alt. Az. Time Alt. Az.
16 Jan ? 05:26:29 10° NNE 05:30:02 42° ESE 05:33:34 10° S visible
17 Jan ? 05:13:40 10° NE 05:16:47 25° ESE 05:19:55 10° SSE visible
17 Jan ? 18:42:48 10° WSW 18:44:06 11° WSW 18:45:24 10° W visible
18 Jan ? 05:01:12 10° ENE 05:03:33 16° ESE 05:05:54 10° SE visible
22 Jan ? 05:40:45 10° NNE 05:44:28 77° ESE 05:48:11 10° S visible
23 Jan ? 05:27:39 10° NNE 05:31:13 44° ESE 05:34:47 10° S visible
24 Jan ? 05:14:47 10° NE 05:17:57 27° E 05:21:10 10° SSE visible
24 Jan ? 18:44:17 10° WSW 18:45:18 11° WSW 18:46:19 10° W visible
25 Jan ? 05:02:16 10° ENE 05:04:43 17° ESE 05:07:11 10° SE visible
